DW6016 Weather Reports


time (UTC)temp
C
wind
direction
speed
KPH
gust
KPH
rain 1hr
cm
rain 24hr
cm
rain mn
cm
humidity
%
barometer
mb
20260901143459 15 314 0.0 0.0 0.00 0.00 0.00 86 1012.6
20260901142955 15 314 0.0 1.6 0.00 0.00 0.00 86 1012.8
20260901142450 15 311 0.0 0.0 0.00 0.00 0.00 86 1012.6
20260901141945 15 314 0.0 0.0 0.00 0.00 0.00 86 1012.7
20260901141444 15 288 0.0 0.0 0.00 0.00 0.00 87 1012.5
20260901140940 15 286 0.0 0.0 0.00 0.00 0.00 87 1012.6
20260901140437 15 286 0.0 0.0 0.00 0.00 0.00 87 1012.5
20260901135932 15 252 1.6 3.2 0.00 0.00 0.00 87 1012.7
20260901135427 15 310 0.0 0.0 0.00 0.00 0.00 87 1012.4
20260901134923 15 292 0.0 0.0 0.00 0.00 0.00 88 1012.3
20260901134419 15 308 0.0 0.0 0.00 0.00 0.00 88 1012.2
20260901133918 15 308 0.0 0.0 0.00 0.00 0.00 88 1012.3
20260901133418 15 308 0.0 0.0 0.00 0.00 0.00 88 1012.3
20260901132916 15 302 0.0 0.0 0.00 0.00 0.00 88 1012.5
20260901132411 15 303 0.0 0.0 0.00 0.00 0.00 89 1012.3
20260901131910 15 303 0.0 0.0 0.00 0.00 0.00 89 1012.3
20260901131410 15 303 0.0 0.0 0.00 0.00 0.00 89 1012.4
20260901130906 15 304 0.0 0.0 0.00 0.00 0.00 90 1012.4
20260901130400 14 303 0.0 0.0 0.00 0.00 0.00 90 1012.3
20260901125858 14 302 0.0 0.0 0.00 0.00 0.00 90 1012.3
20260901125357 14 285 0.0 0.0 0.00 0.00 0.00 90 1012.4
20260901124852 14 285 0.0 0.0 0.00 0.00 0.00 90 1012.3
20260901124347 14 285 0.0 0.0 0.00 0.00 0.00 90 1012.2
20260901123847 14 285 0.0 0.0 0.00 0.00 0.00 90 1012.3
20260901123342 14 285 0.0 0.0 0.00 0.00 0.00 90 1012.0
20260901122840 14 280 0.0 1.6 0.00 0.00 0.00 90 1012.2
20260901122335 14 294 0.0 0.0 0.00 0.00 0.00 90 1012.3
20260901121834 14 294 0.0 0.0 0.00 0.00 0.00 90 1012.1
20260901121330 14 293 0.0 0.0 0.00 0.00 0.00 90 1012.3
20260901120825 14 293 0.0 0.0 0.00 0.00 0.00 90 1012.3
20260901120319 14 330 0.0 0.0 0.00 0.00 0.00 90 1012.2
20260901115815 14 330 0.0 0.0 0.00 0.00 0.00 90 1012.3
20260901115310 14 331 0.0 0.0 0.00 0.00 0.00 90 1012.2
20260901114808 14 331 0.0 0.0 0.00 0.00 0.00 90 1012.2
20260901114302 14 307 0.0 0.0 0.00 0.00 0.00 90 1012.3
20260901113801 14 289 0.0 0.0 0.00 0.00 0.00 91 1012.1
20260901113255 14 296 0.0 0.0 0.00 0.00 0.00 91 1012.3
20260901112750 14 297 0.0 0.0 0.00 0.00 0.00 91 1012.2
20260901112249 14 296 0.0 0.0 0.00 0.00 0.00 91 1012.2
20260901111744 14 296 0.0 1.6 0.00 0.00 0.00 91 1012.0
20260901111243 13 300 0.0 0.0 0.00 0.00 0.00 91 1012.0
20260901110737 13 306 0.0 1.6 0.00 0.00 0.00 92 1012.2
20260901110233 13 316 0.0 0.0 0.00 0.00 0.00 92 1012.0
20260901105730 13 316 0.0 0.0 0.00 0.00 0.00 91 1012.1
20260901105229 13 316 0.0 0.0 0.00 0.00 0.00 90 1012.1
20260901104725 14 316 0.0 0.0 0.00 0.00 0.00 90 1012.1
20260901104226 14 308 0.0 0.0 0.00 0.00 0.00 90 1011.9
20260901103725 14 307 1.6 1.6 0.00 0.00 0.00 90 1011.8
20260901103220 14 300 0.0 0.0 0.00 0.00 0.00 89 1011.9
20260901102715 14 301 0.0 0.0 0.00 0.00 0.00 89 1011.9
20260901102214 14 302 0.0 0.0 0.00 0.00 0.00 89 1011.9
20260901101711 14 301 0.0 0.0 0.00 0.00 0.00 89 1011.9
20260901101211 14 288 0.0 0.0 0.00 0.00 0.00 90 1012.2
20260901100705 14 302 0.0 0.0 0.00 0.00 0.00 90 1011.8
20260901100159 14 304 0.0 0.0 0.00 0.00 0.00 90 1012.1
20260901095658 13 322 0.0 0.0 0.00 0.00 0.00 90 1011.9
20260901095156 13 322 0.0 1.6 0.00 0.00 0.00 91 1011.8
20260901094651 13 322 0.0 0.0 0.00 0.00 0.00 90 1011.7
20260901094150 14 322 0.0 0.0 0.00 0.00 0.00 90 1012.0
20260901093645 14 323 0.0 0.0 0.00 0.00 0.00 90 1011.9
20260901093144 14 317 0.0 0.0 0.00 0.00 0.00 90 1011.8
20260901092640 14 317 0.0 0.0 0.00 0.00 0.00 90 1011.5
20260901092136 14 317 0.0 0.0 0.00 0.00 0.00 90 1011.5
20260901091632 14 318 0.0 0.0 0.00 0.00 0.00 90 1011.6
20260901091126 14 306 0.0 0.0 0.00 0.00 0.00 90 1011.6
20260901090621 13 306 0.0 0.0 0.00 0.00 0.00 90 1011.3
20260901090117 14 306 0.0 0.0 0.00 0.00 0.00 89 1011.5
20260901085612 14 306 0.0 0.0 0.00 0.00 0.00 89 1011.5
20260901085108 14 306 0.0 0.0 0.00 0.00 0.00 88 1011.3
20260901084604 14 306 0.0 0.0 0.00 0.00 0.00 88 1011.4
20260901084100 15 306 0.0 0.0 0.00 0.00 0.00 87 1011.1
20260901083554 15 306 0.0 0.0 0.00 0.00 0.00 86 1011.3
20260901083052 15 306 0.0 0.0 0.00 0.00 0.00 86 1011.1
20260901082547 15 306 0.0 0.0 0.00 0.00 0.00 86 1011.3
20260901082043 15 295 0.0 0.0 0.00 0.00 0.00 86 1011.4
20260901081538 15 295 0.0 0.0 0.00 0.00 0.00 86 1011.4
20260901081033 15 295 0.0 0.0 0.00 0.00 0.00 86 1011.5
20260901080532 15 294 0.0 0.0 0.00 0.00 0.00 86 1011.4
20260901080032 15 295 1.6 1.6 0.00 0.00 0.00 86 1011.3
20260901075528 15 294 0.0 0.0 0.00 0.00 0.00 86 1011.3
20260901075027 15 293 0.0 0.0 0.00 0.00 0.00 85 1011.3
20260901074526 15 293 0.0 0.0 0.00 0.00 0.00 84 1011.1
20260901074022 16 293 0.0 0.0 0.00 0.00 0.00 83 1011.1
20260901073518 16 293 0.0 0.0 0.00 0.00 0.00 82 1011.0
20260901073013 16 293 0.0 0.0 0.00 0.00 0.00 82 1010.9
20260901072508 16 293 0.0 0.0 0.00 0.00 0.00 81 1010.8
20260901072003 16 288 0.0 0.0 0.00 0.00 0.00 80 1010.8
20260901071503 17 287 0.0 0.0 0.00 0.00 0.00 79 1010.8
20260901071001 17 283 0.0 1.6 0.00 0.00 0.00 79 1010.7
20260901070457 17 286 0.0 0.0 0.00 0.00 0.00 78 1010.7
20260901065955 17 291 0.0 0.0 0.00 0.00 0.00 77 1010.6
20260901065451 17 279 0.0 0.0 0.00 0.00 0.00 77 1010.7
20260901064940 17 261 1.6 1.6 0.00 0.00 0.00 77 1010.6
20260901064436 17 295 0.0 1.6 0.00 0.00 0.00 76 1010.3
20260901063934 18 295 0.0 1.6 0.00 0.00 0.00 76 1010.3
20260901063430 18 278 1.6 1.6 0.00 0.00 0.00 75 1010.3
20260901062926 18 305 0.0 0.0 0.00 0.00 0.00 75 1010.2
20260901062421 18 321 0.0 1.6 0.00 0.00 0.00 75 1010.1
20260901061917 18 299 0.0 0.0 0.00 0.00 0.00 74 1009.9
20260901061413 18 294 0.0 0.0 0.00 0.00 0.00 74 1010.0
20260901060907 18 282 1.6 1.6 0.00 0.00 0.00 73 1009.9
20260901060403 18 270 1.6 1.6 0.00 0.00 0.00 73 1009.9
20260901055902 18 295 0.0 1.6 0.00 0.00 0.00 72 1009.8
20260901055359 18 297 0.0 0.0 0.00 0.00 0.00 72 1009.7
20260901054855 18 299 0.0 0.0 0.00 0.00 0.00 71 1009.8
20260901054352 19 286 1.6 1.6 0.00 0.00 0.00 71 1009.8
20260901053848 18 285 1.6 1.6 0.00 0.00 0.00 71 1009.7
20260901053343 18 296 0.0 0.0 0.00 0.00 0.00 72 1009.8
20260901052838 18 291 0.0 0.0 0.00 0.00 0.00 72 1009.6
20260901052334 18 306 1.6 1.6 0.00 0.00 0.00 72 1009.4
20260901051832 18 314 0.0 0.0 0.00 0.00 0.00 72 1009.6
20260901051327 18 295 0.0 0.0 0.00 0.00 0.00 73 1009.5
20260901050823 18 295 0.0 0.0 0.00 0.00 0.00 72 1009.4
20260901050318 18 295 0.0 0.0 0.00 0.00 0.00 71 1009.4
20260901045813 18 295 0.0 0.0 0.00 0.00 0.00 71 1009.4
20260901045307 18 295 0.0 0.0 0.00 0.00 0.00 71 1009.3
20260901044803 19 295 0.0 0.0 0.00 0.00 0.00 70 1009.2
20260901044259 19 295 0.0 0.0 0.00 0.00 0.00 69 1009.2
20260901043754 19 295 0.0 0.0 0.00 0.00 0.00 70 1009.1
20260901043251 19 295 0.0 0.0 0.00 0.00 0.00 70 1009.1
20260901042750 18 295 0.0 0.0 0.00 0.00 0.00 71 1008.9
20260901042245 19 295 0.0 0.0 0.00 0.00 0.00 70 1008.9
20260901041740 19 295 0.0 0.0 0.00 0.00 0.00 70 1008.9
20260901041240 19 295 0.0 0.0 0.00 0.00 0.00 69 1008.9
20260901040735 19 295 0.0 0.0 0.00 0.00 0.00 69 1008.8
20260901040234 20 295 0.0 0.0 0.00 0.00 0.00 68 1008.6
20260901035733 20 295 0.0 0.0 0.00 0.00 0.00 67 1008.5
20260901035232 20 295 0.0 0.0 0.00 0.00 0.00 67 1008.5
20260901034731 20 295 0.0 0.0 0.00 0.00 0.00 67 1008.4
20260901034226 20 295 0.0 0.0 0.00 0.00 0.00 66 1008.3
20260901033726 20 295 0.0 0.0 0.00 0.00 0.00 66 1008.3
20260901033225 20 295 0.0 0.0 0.00 0.00 0.00 67 1008.2
20260901032724 20 295 0.0 0.0 0.00 0.00 0.00 65 1008.0
20260901032218 20 295 0.0 0.0 0.00 0.00 0.00 64 1008.0
20260901031714 21 295 0.0 0.0 0.00 0.00 0.00 63 1007.9
20260901031210 21 295 0.0 0.0 0.00 0.00 0.00 62 1008.0
20260901030704 22 295 0.0 0.0 0.00 0.00 0.00 60 1007.8
20260901030159 22 295 0.0 0.0 0.00 0.00 0.00 60 1008.1
20260901025654 21 295 0.0 0.0 0.00 0.00 0.00 61 1008.0
20260901025149 22 295 0.0 0.0 0.00 0.00 0.00 60 1007.9
20260901024648 22 295 0.0 0.0 0.00 0.00 0.00 58 1008.0
20260901024148 22 295 0.0 0.0 0.00 0.00 0.00 57 1008.0
20260901023646 23 295 0.0 0.0 0.00 0.00 0.00 53 1007.9
20260901023141 23 295 0.0 0.0 0.00 0.00 0.00 52 1007.9
20260901022636 24 295 0.0 0.0 0.00 0.00 0.00 50 1007.9
20260901022131 25 295 0.0 0.0 0.00 0.00 0.00 50 1008.1
20260901021627 25 296 0.0 0.0 0.00 0.00 0.00 48 1007.9
20260901021122 25 296 0.0 0.0 0.00 0.00 0.00 48 1007.8
20260901020618 26 296 0.0 0.0 0.00 0.00 0.00 47 1007.7
20260901020113 26 294 0.0 0.0 0.00 0.00 0.00 47 1007.9
20260901015608 26 294 0.0 0.0 0.00 0.00 0.00 46 1007.9
20260901015108 26 293 0.0 0.0 0.00 0.00 0.00 46 1007.9
20260901014603 27 301 0.0 0.0 0.00 0.00 0.00 46 1007.6
20260901014059 27 301 0.0 0.0 0.00 0.00 0.00 45 1007.6
20260901013554 27 302 0.0 0.0 0.00 0.00 0.00 45 1007.7
20260901013050 27 303 0.0 0.0 0.00 0.00 0.00 46 1007.8
20260901012550 27 302 0.0 0.0 0.00 0.00 0.00 45 1007.8
20260901012045 27 304 0.0 0.0 0.00 0.00 0.00 47 1008.1
20260901011542 27 304 0.0 0.0 0.00 0.00 0.00 45 1007.8
20260901011039 27 300 0.0 0.0 0.00 0.00 0.00 45 1007.9
20260901010534 27 311 0.0 0.0 0.00 0.00 0.00 44 1007.9
20260901010033 27 311 0.0 0.0 0.00 0.00 0.00 45 1007.7
20260901005528 28 311 0.0 0.0 0.00 0.00 0.00 43 1007.6
20260901005024 28 305 1.6 1.6 0.00 0.00 0.00 44 1007.7
20260901004523 28 317 0.0 0.0 0.00 0.00 0.00 44 1008.0
20260901004018 28 277 0.0 1.6 0.00 0.00 0.00 43 1007.8
20260901003514 28 318 0.0 0.0 0.00 0.00 0.00 44 1007.9
20260901003012 28 302 0.0 0.0 0.00 0.00 0.00 44 1007.9
20260901002511 28 207 1.6 3.2 0.00 0.00 0.00 44 1008.0
20260901002006 28 270 1.6 3.2 0.00 0.00 0.00 43 1007.9
20260901001501 28 292 0.0 0.0 0.00 0.00 0.00 44 1007.9
20260901000956 28 295 0.0 0.0 0.00 0.00 0.00 45 1007.8
20260901000451 28 294 0.0 0.0 0.00 0.00 0.00 45 1007.9
20260831235950 28 307 0.0 0.0 0.00 0.00 0.00 42 1007.8
20260831235445 28 310 0.0 0.0 0.00 0.00 0.00 40 1008.0
20260831234941 28 303 0.0 0.0 0.00 0.00 0.00 40 1007.7
20260831234435 28 313 0.0 0.0 0.00 0.00 0.00 38 1008.0
20260831233931 28 302 6.4 8.0 0.00 0.00 0.00 37 1008.0
20260831233426 28 323 3.2 3.2 0.00 0.00 0.00 38 1008.1
20260831232921 28 302 1.6 3.2 0.00 0.00 0.00 39 1008.1
20260831232417 28 314 0.0 0.0 0.00 0.00 0.00 39 1008.0
20260831231913 28 315 3.2 4.8 0.00 0.00 0.00 41 1007.9
20260831231409 28 296 0.0 0.0 0.00 0.00 0.00 41 1007.9
20260831230905 27 292 0.0 0.0 0.00 0.00 0.00 42 1008.0
20260831230359 27 340 3.2 3.2 0.00 0.00 0.00 40 1008.0
20260831225853 27 296 4.8 8.0 0.00 0.00 0.00 41 1008.2
20260831225349 27 306 3.2 3.2 0.00 0.00 0.00 41 1007.9
20260831224844 27 322 0.0 0.0 0.00 0.00 0.00 41 1008.3
20260831224339 27 318 0.0 0.0 0.00 0.00 0.00 41 1008.3
20260831223833 27 305 3.2 3.2 0.00 0.00 0.00 42 1008.3
20260831223330 27 259 1.6 1.6 0.00 0.00 0.00 41 1008.3
20260831222826 27 323 0.0 0.0 0.00 0.00 0.00 42 1008.2
20260831222321 27 314 0.0 0.0 0.00 0.00 0.00 41 1008.4
20260831221821 27 312 0.0 1.6 0.00 0.00 0.00 42 1008.3
20260831221317 27 308 0.0 1.6 0.00 0.00 0.00 42 1008.4
20260831220812 26 351 0.0 0.0 0.00 0.00 0.00 43 1008.6
20260831220307 27 314 0.0 1.6 0.00 0.00 0.00 44 1008.6
20260831215802 27 100 1.6 1.6 0.00 0.00 0.00 43 1008.8
20260831215258 26 272 1.6 1.6 0.00 0.00 0.00 43 1008.8
20260831214754 26 286 1.6 1.6 0.00 0.00 0.00 46 1008.9
20260831214252 26 309 4.8 4.8 0.00 0.00 0.00 45 1009.1
20260831213747 26 83 0.0 1.6 0.00 0.00 0.00 46 1009.0
20260831213243 26 11 1.6 1.6 0.00 0.00 0.00 45 1009.1
20260831212738 26 292 6.4 9.7 0.00 0.00 0.00 45 1009.2
20260831212235 26 301 0.0 3.2 0.00 0.00 0.00 48 1009.1
20260831211732 26 283 0.0 1.6 0.00 0.00 0.00 45 1009.1
20260831211228 26 322 0.0 0.0 0.00 0.00 0.00 47 1009.2
20260831210723 25 322 0.0 0.0 0.00 0.00 0.00 47 1009.1
20260831210219 25 311 1.6 1.6 0.00 0.00 0.00 48 1009.4
20260831205718 25 316 4.8 4.8 0.00 0.00 0.00 49 1009.2
20260831205214 25 315 3.2 3.2 0.00 0.00 0.00 49 1009.2
20260831204709 25 300 1.6 1.6 0.00 0.00 0.00 49 1009.3
20260831204208 25 312 6.4 8.0 0.00 0.00 0.00 48 1009.5
20260831203708 25 299 3.2 3.2 0.00 0.00 0.00 50 1009.4
20260831203202 25 301 4.8 4.8 0.00 0.00 0.00 50 1009.7
20260831202700 25 303 4.8 4.8 0.00 0.00 0.00 49 1009.6
20260831202155 25 310 3.2 3.2 0.00 0.00 0.00 51 1009.7
20260831201655 25 309 0.0 0.0 0.00 0.00 0.00 51 1009.5
20260831201155 25 220 1.6 1.6 0.00 0.00 0.00 51 1009.7
20260831200651 24 297 1.6 3.2 0.00 0.00 0.00 53 1009.6
20260831200151 24 303 0.0 0.0 0.00 0.00 0.00 52 1009.7
20260831195646 25 314 4.8 4.8 0.00 0.00 0.00 51 1009.9
20260831195141 25 275 3.2 4.8 0.00 0.00 0.00 52 1010.2
20260831194636 24 304 0.0 0.0 0.00 0.00 0.00 52 1010.2
20260831194131 24 287 3.2 3.2 0.00 0.00 0.00 51 1010.2
20260831193626 23 294 1.6 1.6 0.00 0.00 0.00 53 1010.2
20260831193121 23 302 0.0 1.6 0.00 0.00 0.00 55 1010.1
20260831192616 23 295 1.6 3.2 0.00 0.00 0.00 55 1010.4
20260831192112 23 314 4.8 8.0 0.00 0.00 0.00 54 1010.6
20260831191608 23 303 3.2 4.8 0.00 0.00 0.00 54 1010.4
20260831191103 23 288 3.2 4.8 0.00 0.00 0.00 55 1010.4
20260831190558 23 311 1.6 3.2 0.00 0.00 0.00 56 1010.7
20260831190056 23 275 0.0 1.6 0.00 0.00 0.00 56 1010.7
20260831185553 23 302 0.0 0.0 0.00 0.00 0.00 55 1010.6
20260831185048 23 285 1.6 1.6 0.00 0.00 0.00 56 1011.0
20260831184548 23 301 1.6 1.6 0.00 0.00 0.00 57 1011.0
20260831184044 22 282 3.2 3.2 0.00 0.00 0.00 59 1010.9
20260831183543 22 289 3.2 4.8 0.00 0.00 0.00 58 1010.8
20260831183042 22 163 1.6 3.2 0.00 0.00 0.00 60 1011.1
20260831182537 21 290 0.0 1.6 0.00 0.00 0.00 61 1011.2
20260831182033 21 200 1.6 3.2 0.00 0.00 0.00 62 1011.2
20260831181532 21 298 1.6 1.6 0.00 0.00 0.00 62 1011.0
20260831181032 21 282 1.6 1.6 0.00 0.00 0.00 61 1011.5
20260831180527 21 303 0.0 1.6 0.00 0.00 0.00 65 1011.5
20260831180023 21 293 0.0 1.6 0.00 0.00 0.00 63 1011.3
20260831175518 21 304 0.0 1.6 0.00 0.00 0.00 65 1011.4
20260831175015 20 297 0.0 0.0 0.00 0.00 0.00 65 1011.5
20260831174514 20 299 3.2 3.2 0.00 0.00 0.00 65 1011.3
20260831174009 20 311 1.6 1.6 0.00 0.00 0.00 62 1011.4
20260831173507 20 304 1.6 1.6 0.00 0.00 0.00 66 1011.7
20260831173004 20 290 3.2 3.2 0.00 0.00 0.00 68 1011.8
20260831172459 19 354 1.6 3.2 0.00 0.00 0.00 69 1011.9
20260831171953 18 298 1.6 1.6 0.00 0.00 0.00 70 1011.8
20260831171449 18 310 3.2 3.2 0.00 0.00 0.00 71 1011.8
20260831170946 18 311 1.6 1.6 0.00 0.00 0.00 72 1011.9
20260831170442 18 310 0.0 1.6 0.00 0.00 0.00 73 1012.0
20260831165939 18 320 1.6 1.6 0.00 0.00 0.00 73 1012.0
20260831165434 17 285 0.0 1.6 0.00 0.00 0.00 74 1012.0
20260831164931 18 300 3.2 4.8 0.00 0.00 0.00 73 1012.1
20260831164426 17 313 0.0 0.0 0.00 0.00 0.00 74 1012.1
20260831163921 17 313 3.2 3.2 0.00 0.00 0.00 75 1012.0
20260831163417 18 302 1.6 1.6 0.00 0.00 0.00 74 1012.1
20260831162915 17 330 0.0 0.0 0.00 0.00 0.00 74 1012.0
20260831162411 17 311 0.0 1.6 0.00 0.00 0.00 75 1012.2
20260831161909 18 307 0.0 1.6 0.00 0.00 0.00 75 1012.3
20260831161406 18 328 0.0 1.6 0.00 0.00 0.00 74 1012.2
20260831160901 18 310 0.0 1.6 0.00 0.00 0.00 76 1012.4
20260831160356 18 304 1.6 1.6 0.00 0.00 0.00 75 1012.5
20260831155851 17 301 1.6 1.6 0.00 0.00 0.00 77 1012.3
20260831155350 18 307 0.0 1.6 0.00 0.00 0.00 74 1012.4
20260831154846 18 317 1.6 1.6 0.00 0.00 0.00 77 1012.3
20260831154343 17 305 0.0 1.6 0.00 0.00 0.00 77 1012.5
20260831153841 17 304 0.0 1.6 0.00 0.00 0.00 79 1012.4
20260831153337 17 8 1.6 1.6 0.00 0.00 0.00 79 1012.3
20260831152833 17 316 0.0 1.6 0.00 0.00 0.00 80 1012.6
20260831152329 17 327 0.0 0.0 0.00 0.00 0.00 80 1012.3
20260831151823 16 318 0.0 1.6 0.00 0.00 0.00 81 1012.6
20260831151322 16 351 1.6 1.6 0.00 0.00 0.00 83 1012.8
20260831150818 16 162 3.2 3.2 0.00 0.00 0.00 82 1012.7
20260831150313 16 319 0.0 0.0 0.00 0.00 0.00 83 1012.8
20260831145812 16 320 0.0 0.0 0.00 0.00 0.00 83 1012.8
20260831145309 16 307 0.0 0.0 0.00 0.00 0.00 83 1012.7
20260831144804 15 314 0.0 0.0 0.00 0.00 0.00 87 1012.7
20260831144300 14 314 0.0 0.0 0.00 0.00 0.00 92 1012.8